| time (UTC) | temp C | wind direction | speed KPH | gust KPH | rain 1hr cm | rain 24hr cm | rain mn cm | humidity % | barometer mb |
| 20260502194507 | 17 | 17 | 16.1 | 40.2 | 0.00 | 0.00 | 0.00 | 36 | 1022.3 |
| 20260502194007 | 17 | 346 | 24.1 | 40.2 | 0.00 | 0.00 | 0.00 | 34 | 1022.3 |
| 20260502192507 | 16 | 24 | 19.3 | 37.0 | 0.00 | 0.00 | 0.00 | 34 | 1022.3 |
| 20260502192007 | 16 | 6 | 16.1 | 37.0 | 0.00 | 0.00 | 0.00 | 35 | 1022.4 |
| 20260502191007 | 16 | 34 | 19.3 | 41.8 | 0.00 | 0.00 | 0.00 | 35 | 1022.4 |
| 20260502190507 | 17 | 11 | 20.9 | 41.8 | 0.00 | 0.00 | 0.00 | 35 | 1022.4 |
| 20260502190007 | 16 | 14 | 25.7 | 41.8 | 0.00 | 0.00 | 0.00 | 37 | 1022.5 |
| 20260502185007 | 16 | 27 | 25.7 | 41.8 | 0.00 | 0.00 | 0.00 | 36 | 1022.6 |
| 20260502184507 | 16 | 25 | 29.0 | 41.8 | 0.00 | 0.00 | 0.00 | 33 | 1022.6 |
| 20260502184007 | 16 | 44 | 22.5 | 41.8 | 0.00 | 0.00 | 0.00 | 37 | 1022.6 |
| 20260502183008 | 16 | 20 | 25.7 | 40.2 | 0.00 | 0.00 | 0.00 | 36 | 1022.8 |
| 20260502182507 | 16 | 15 | 22.5 | 40.2 | 0.00 | 0.00 | 0.00 | 37 | 1022.8 |
| 20260502182007 | 16 | 354 | 27.4 | 40.2 | 0.00 | 0.00 | 0.00 | 40 | 1022.9 |
| 20260502181507 | 16 | 26 | 17.7 | 35.4 | 0.00 | 0.00 | 0.00 | 39 | 1022.8 |
| 20260502181007 | 15 | 21 | 16.1 | 40.2 | 0.00 | 0.00 | 0.00 | 38 | 1022.8 |
| 20260502180507 | 16 | 17 | 22.5 | 45.1 | 0.00 | 0.00 | 0.00 | 41 | 1022.8 |
| 20260502170506 | 15 | 27 | 22.5 | 40.2 | 0.00 | 0.00 | 0.00 | 44 | 1022.8 |
| 20260502164007 | 14 | 34 | 20.9 | 38.6 | 0.00 | 0.00 | 0.00 | 48 | 1022.6 |
| 20260502163006 | 13 | 11 | 24.1 | 41.8 | 0.00 | 0.00 | 0.00 | 51 | 1022.6 |
| 20260502162507 | 13 | 22 | 24.1 | 41.8 | 0.00 | 0.00 | 0.00 | 52 | 1022.6 |
| 20260502161506 | 13 | 25 | 25.7 | 41.8 | 0.00 | 0.00 | 0.00 | 51 | 1022.5 |
| 20260502161007 | 13 | 10 | 25.7 | 41.8 | 0.00 | 0.00 | 0.00 | 53 | 1022.6 |
| 20260502160507 | 13 | 358 | 29.0 | 41.8 | 0.00 | 0.00 | 0.00 | 54 | 1022.5 |
| 20260502152007 | 12 | 354 | 25.7 | 40.2 | 0.00 | 0.00 | 0.00 | 57 | 1022.3 |
| 20260502151507 | 12 | 18 | 17.7 | 35.4 | 0.00 | 0.00 | 0.00 | 57 | 1022.3 |
| 20260502151006 | 12 | 0 | 20.9 | 35.4 | 0.00 | 0.00 | 0.00 | 60 | 1022.3 |
| 20260502130506 | 6 | 347 | 20.9 | 29.0 | 0.00 | 0.00 | 0.00 | 75 | 1020.8 |
| 20260502123507 | 6 | 8 | 12.9 | 22.5 | 0.00 | 0.00 | 0.00 | 76 | 1020.4 |
| 20260502122506 | 6 | 357 | 14.5 | 27.4 | 0.00 | 0.00 | 0.00 | 76 | 1020.4 |
| 20260502121507 | 6 | 352 | 19.3 | 29.0 | 0.00 | 0.00 | 0.00 | 75 | 1020.3 |
| 20260502121007 | 6 | 342 | 19.3 | 25.7 | 0.00 | 0.00 | 0.00 | 75 | 1020.2 |
| 20260502120507 | 6 | 352 | 17.7 | 25.7 | 0.00 | 0.00 | 0.00 | 75 | 1020.1 |
| 20260502115506 | 6 | 3 | 16.1 | 33.8 | 0.00 | 0.00 | 0.00 | 75 | 1020.0 |
| 20260502115006 | 6 | 0 | 14.5 | 33.8 | 0.00 | 0.00 | 0.00 | 75 | 1020.0 |
| 20260502114506 | 6 | 357 | 19.3 | 32.2 | 0.00 | 0.00 | 0.00 | 74 | 1020.0 |
| 20260502114007 | 6 | 11 | 17.7 | 29.0 | 0.00 | 0.00 | 0.00 | 75 | 1019.9 |
| 20260502113007 | 7 | 0 | 19.3 | 33.8 | 0.00 | 0.00 | 0.00 | 74 | 1019.8 |
| 20260502112006 | 7 | 357 | 17.7 | 25.7 | 0.00 | 0.00 | 0.00 | 73 | 1019.6 |
| 20260502111507 | 7 | 346 | 17.7 | 25.7 | 0.00 | 0.00 | 0.00 | 74 | 1019.6 |
| 20260502111007 | 7 | 351 | 16.1 | 25.7 | 0.00 | 0.00 | 0.00 | 73 | 1019.6 |
| 20260502110507 | 7 | 348 | 16.1 | 25.7 | 0.00 | 0.00 | 0.00 | 72 | 1019.4 |
| 20260502110007 | 7 | 350 | 16.1 | 29.0 | 0.00 | 0.00 | 0.00 | 71 | 1019.4 |
| 20260502105006 | 7 | 354 | 19.3 | 29.0 | 0.00 | 0.00 | 0.00 | 70 | 1019.2 |
| 20260502104506 | 8 | 351 | 17.7 | 24.1 | 0.00 | 0.00 | 0.00 | 69 | 1019.2 |
| 20260502104006 | 8 | 336 | 11.3 | 24.1 | 0.00 | 0.00 | 0.00 | 69 | 1019.2 |
| 20260502103506 | 8 | 331 | 16.1 | 22.5 | 0.00 | 0.00 | 0.00 | 68 | 1019.0 |
| 20260502103007 | 8 | 344 | 16.1 | 25.7 | 0.00 | 0.00 | 0.00 | 68 | 1018.9 |
| 20260502102506 | 8 | 336 | 12.9 | 25.7 | 0.00 | 0.00 | 0.00 | 67 | 1018.8 |
| 20260502102007 | 8 | 349 | 16.1 | 25.7 | 0.00 | 0.00 | 0.00 | 67 | 1018.8 |
| 20260502101007 | 9 | 351 | 19.3 | 24.1 | 0.00 | 0.00 | 0.00 | 66 | 1018.7 |
| 20260502100507 | 9 | 354 | 12.9 | 20.9 | 0.00 | 0.00 | 0.00 | 66 | 1018.6 |
| 20260502091507 | 10 | 305 | 6.4 | 14.5 | 0.00 | 0.00 | 0.00 | 62 | 1018.5 |
| 20260502091007 | 10 | 277 | 6.4 | 16.1 | 0.00 | 0.00 | 0.00 | 60 | 1018.6 |
| 20260502090507 | 10 | 306 | 8.0 | 16.1 | 0.00 | 0.00 | 0.00 | 60 | 1018.5 |
| 20260502071507 | 12 | 328 | 8.0 | 19.3 | 0.00 | 0.00 | 0.00 | 47 | 1017.9 |
| 20260502071006 | 12 | 337 | 9.7 | 20.9 | 0.00 | 0.00 | 0.00 | 47 | 1018.0 |
| 20260502070506 | 12 | 330 | 11.3 | 20.9 | 0.00 | 0.00 | 0.00 | 47 | 1017.9 |
| 20260502065006 | 12 | 343 | 14.5 | 22.5 | 0.00 | 0.00 | 0.00 | 45 | 1017.7 |
| 20260502064507 | 12 | 344 | 14.5 | 22.5 | 0.00 | 0.00 | 0.00 | 46 | 1017.7 |
| 20260502064007 | 12 | 346 | 12.9 | 22.5 | 0.00 | 0.00 | 0.00 | 47 | 1017.7 |
| 20260502063506 | 12 | 343 | 11.3 | 19.3 | 0.00 | 0.00 | 0.00 | 48 | 1017.7 |
| 20260502063006 | 12 | 332 | 12.9 | 19.3 | 0.00 | 0.00 | 0.00 | 47 | 1017.7 |
| 20260502062506 | 12 | 319 | 6.4 | 16.1 | 0.00 | 0.00 | 0.00 | 47 | 1017.7 |
| 20260502062006 | 12 | 293 | 4.8 | 14.5 | 0.00 | 0.00 | 0.00 | 48 | 1017.6 |
| 20260502061507 | 12 | 260 | 8.0 | 16.1 | 0.00 | 0.00 | 0.00 | 47 | 1017.7 |
| 20260502061006 | 12 | 267 | 4.8 | 16.1 | 0.00 | 0.00 | 0.00 | 48 | 1017.7 |
| 20260502060506 | 12 | 244 | 8.0 | 20.9 | 0.00 | 0.00 | 0.00 | 48 | 1017.7 |
| 20260502060007 | 12 | 242 | 9.7 | 20.9 | 0.00 | 0.00 | 0.00 | 46 | 1017.6 |
| 20260502055506 | 12 | 247 | 14.5 | 19.3 | 0.00 | 0.00 | 0.00 | 46 | 1017.6 |
| 20260502055007 | 12 | 234 | 9.7 | 16.1 | 0.00 | 0.00 | 0.00 | 45 | 1017.6 |
| 20260502054506 | 12 | 233 | 8.0 | 14.5 | 0.00 | 0.00 | 0.00 | 45 | 1017.6 |
| 20260502054006 | 12 | 228 | 8.0 | 14.5 | 0.00 | 0.00 | 0.00 | 44 | 1017.6 |
| 20260502053506 | 12 | 234 | 6.4 | 14.5 | 0.00 | 0.00 | 0.00 | 44 | 1017.7 |
| 20260502053007 | 12 | 227 | 8.0 | 16.1 | 0.00 | 0.00 | 0.00 | 43 | 1017.7 |
| 20260502052507 | 13 | 231 | 9.7 | 16.1 | 0.00 | 0.00 | 0.00 | 42 | 1017.7 |
| 20260502052007 | 13 | 234 | 9.7 | 16.1 | 0.00 | 0.00 | 0.00 | 41 | 1017.8 |
| 20260502051507 | 13 | 240 | 11.3 | 19.3 | 0.00 | 0.00 | 0.00 | 40 | 1017.9 |
| 20260502051006 | 13 | 222 | 11.3 | 19.3 | 0.00 | 0.00 | 0.00 | 39 | 1017.8 |
| 20260502050506 | 13 | 224 | 9.7 | 19.3 | 0.00 | 0.00 | 0.00 | 39 | 1017.7 |
| 20260502050006 | 14 | 233 | 9.7 | 19.3 | 0.00 | 0.00 | 0.00 | 39 | 1017.7 |
| 20260502045507 | 14 | 232 | 9.7 | 19.3 | 0.00 | 0.00 | 0.00 | 37 | 1017.7 |
| 20260502045006 | 14 | 223 | 11.3 | 19.3 | 0.00 | 0.00 | 0.00 | 37 | 1017.7 |
| 20260502044506 | 14 | 211 | 9.7 | 19.3 | 0.00 | 0.00 | 0.00 | 37 | 1017.6 |
| 20260502044006 | 14 | 192 | 9.7 | 20.9 | 0.00 | 0.00 | 0.00 | 37 | 1017.6 |
| 20260502043506 | 14 | 215 | 9.7 | 20.9 | 0.00 | 0.00 | 0.00 | 36 | 1017.7 |
| 20260502043007 | 15 | 213 | 9.7 | 19.3 | 0.00 | 0.00 | 0.00 | 35 | 1017.8 |
| 20260502041506 | 15 | 214 | 8.0 | 19.3 | 0.00 | 0.00 | 0.00 | 32 | 1018.0 |
| 20260502041006 | 15 | 210 | 8.0 | 19.3 | 0.00 | 0.00 | 0.00 | 32 | 1018.2 |
| 20260502040006 | 15 | 191 | 8.0 | 12.9 | 0.00 | 0.00 | 0.00 | 31 | 1018.2 |
| 20260502035506 | 15 | 199 | 3.2 | 11.3 | 0.00 | 0.00 | 0.00 | 31 | 1018.2 |
| 20260502035006 | 15 | 184 | 4.8 | 11.3 | 0.00 | 0.00 | 0.00 | 31 | 1018.1 |
| 20260502034506 | 15 | 185 | 4.8 | 11.3 | 0.00 | 0.00 | 0.00 | 30 | 1018.1 |
| 20260502034006 | 16 | 188 | 6.4 | 12.9 | 0.00 | 0.00 | 0.00 | 30 | 1018.1 |
| 20260502033506 | 16 | 201 | 6.4 | 12.9 | 0.00 | 0.00 | 0.00 | 30 | 1018.1 |
| 20260502033006 | 16 | 200 | 4.8 | 19.3 | 0.00 | 0.00 | 0.00 | 30 | 1018.1 |
| 20260502032506 | 16 | 196 | 8.0 | 19.3 | 0.00 | 0.00 | 0.00 | 30 | 1018.1 |
| 20260502032007 | 15 | 191 | 8.0 | 19.3 | 0.00 | 0.00 | 0.00 | 30 | 1018.0 |
| 20260502031506 | 16 | 188 | 4.8 | 11.3 | 0.00 | 0.00 | 0.00 | 29 | 1018.1 |
| 20260502031007 | 16 | 198 | 4.8 | 9.7 | 0.00 | 0.00 | 0.00 | 29 | 1018.0 |
| 20260502030506 | 16 | 182 | 4.8 | 12.9 | 0.00 | 0.00 | 0.00 | 28 | 1018.0 |
| 20260502030006 | 16 | 169 | 4.8 | 12.9 | 0.00 | 0.00 | 0.00 | 28 | 1018.1 |
| 20260502025506 | 16 | 164 | 4.8 | 12.9 | 0.00 | 0.00 | 0.00 | 28 | 1018.1 |
| 20260502025006 | 16 | 163 | 6.4 | 11.3 | 0.00 | 0.00 | 0.00 | 27 | 1018.2 |
| 20260502024007 | 16 | 155 | 4.8 | 9.7 | 0.00 | 0.00 | 0.00 | 28 | 1018.3 |
| 20260502023506 | 16 | 168 | 3.2 | 9.7 | 0.00 | 0.00 | 0.00 | 28 | 1018.4 |
| 20260502022006 | 16 | 163 | 3.2 | 11.3 | 0.00 | 0.00 | 0.00 | 27 | 1018.5 |
| 20260502021006 | 16 | 160 | 4.8 | 9.7 | 0.00 | 0.00 | 0.00 | 26 | 1018.6 |
| 20260502020007 | 16 | 154 | 4.8 | 8.0 | 0.00 | 0.00 | 0.00 | 27 | 1018.8 |
| 20260502015506 | 17 | 176 | 1.6 | 4.8 | 0.00 | 0.00 | 0.00 | 26 | 1018.9 |
| 20260502015006 | 16 | 169 | 1.6 | 4.8 | 0.00 | 0.00 | 0.00 | 26 | 1019.0 |
| 20260502014506 | 17 | 169 | 0.0 | 4.8 | 0.00 | 0.00 | 0.00 | 26 | 1019.1 |
| 20260502014006 | 17 | 194 | 1.6 | 4.8 | 0.00 | 0.00 | 0.00 | 24 | 1019.1 |
| 20260502013506 | 17 | 221 | 1.6 | 4.8 | 0.00 | 0.00 | 0.00 | 25 | 1019.1 |
| 20260502013006 | 17 | 221 | 1.6 | 4.8 | 0.00 | 0.00 | 0.00 | 25 | 1019.2 |
| 20260502012506 | 18 | 199 | 1.6 | 4.8 | 0.00 | 0.00 | 0.00 | 24 | 1019.3 |
| 20260502012006 | 18 | 217 | 3.2 | 4.8 | 0.00 | 0.00 | 0.00 | 23 | 1019.4 |
| 20260502011507 | 19 | 223 | 3.2 | 8.0 | 0.00 | 0.00 | 0.00 | 23 | 1019.4 |
| 20260502011006 | 19 | 245 | 4.8 | 8.0 | 0.00 | 0.00 | 0.00 | 22 | 1019.5 |
| 20260502010506 | 19 | 243 | 4.8 | 12.9 | 0.00 | 0.00 | 0.00 | 21 | 1019.5 |
| 20260502010007 | 19 | 233 | 4.8 | 12.9 | 0.00 | 0.00 | 0.00 | 24 | 1019.5 |
| 20260502005506 | 19 | 240 | 6.4 | 12.9 | 0.00 | 0.00 | 0.00 | 21 | 1019.6 |
| 20260502005006 | 20 | 249 | 4.8 | 12.9 | 0.00 | 0.00 | 0.00 | 20 | 1019.6 |
| 20260502004507 | 20 | 255 | 6.4 | 16.1 | 0.00 | 0.00 | 0.00 | 20 | 1019.7 |
| 20260502004006 | 20 | 254 | 6.4 | 19.3 | 0.00 | 0.00 | 0.00 | 20 | 1019.7 |
| 20260502003506 | 20 | 251 | 9.7 | 29.0 | 0.00 | 0.00 | 0.00 | 19 | 1019.7 |
| 20260502003007 | 20 | 251 | 14.5 | 29.0 | 0.00 | 0.00 | 0.00 | 19 | 1019.8 |
| 20260502002506 | 20 | 242 | 9.7 | 19.3 | 0.00 | 0.00 | 0.00 | 19 | 1019.8 |
| 20260502002006 | 20 | 258 | 12.9 | 20.9 | 0.00 | 0.00 | 0.00 | 19 | 1019.8 |
| 20260502001506 | 20 | 250 | 14.5 | 20.9 | 0.00 | 0.00 | 0.00 | 18 | 1019.7 |
| 20260502000506 | 21 | 234 | 14.5 | 25.7 | 0.00 | 0.00 | 0.00 | 19 | 1019.7 |
| 20260502000006 | 21 | 248 | 14.5 | 20.9 | 0.00 | 0.00 | 0.00 | 18 | 1019.8 |
| 20260501235006 | 21 | 259 | 14.5 | 25.7 | 0.00 | 0.00 | 0.00 | 18 | 1019.9 |
| 20260501234506 | 21 | 263 | 14.5 | 24.1 | 0.00 | 0.00 | 0.00 | 18 | 1019.8 |
| 20260501234006 | 21 | 250 | 14.5 | 24.1 | 0.00 | 0.00 | 0.00 | 19 | 1019.9 |
| 20260501233506 | 21 | 212 | 12.9 | 27.4 | 0.00 | 0.00 | 0.00 | 19 | 1019.9 |
| 20260501233007 | 21 | 238 | 14.5 | 29.0 | 0.00 | 0.00 | 0.00 | 20 | 1020.0 |
| 20260501232506 | 21 | 246 | 16.1 | 29.0 | 0.00 | 0.00 | 0.00 | 18 | 1020.0 |
| 20260501231507 | 21 | 248 | 9.7 | 24.1 | 0.00 | 0.00 | 0.00 | 20 | 1020.1 |
| 20260501231006 | 21 | 269 | 9.7 | 24.1 | 0.00 | 0.00 | 0.00 | 20 | 1020.2 |
| 20260501230006 | 22 | 271 | 9.7 | 19.3 | 0.00 | 0.00 | 0.00 | 19 | 1020.2 |
| 20260501225506 | 21 | 264 | 9.7 | 27.4 | 0.00 | 0.00 | 0.00 | 22 | 1020.3 |
| 20260501225006 | 21 | 268 | 14.5 | 27.4 | 0.00 | 0.00 | 0.00 | 19 | 1020.4 |
| 20260501224506 | 21 | 235 | 14.5 | 25.7 | 0.00 | 0.00 | 0.00 | 19 | 1020.4 |
| 20260501224007 | 21 | 266 | 9.7 | 24.1 | 0.00 | 0.00 | 0.00 | 19 | 1020.5 |
| 20260501223506 | 22 | 268 | 17.7 | 24.1 | 0.00 | 0.00 | 0.00 | 19 | 1020.6 |
| 20260501223006 | 22 | 229 | 8.0 | 16.1 | 0.00 | 0.00 | 0.00 | 22 | 1020.6 |
| 20260501222506 | 21 | 191 | 8.0 | 25.7 | 0.00 | 0.00 | 0.00 | 19 | 1020.7 |
| 20260501221507 | 22 | 257 | 8.0 | 24.1 | 0.00 | 0.00 | 0.00 | 19 | 1020.8 |
| 20260501221006 | 22 | 212 | 16.1 | 24.1 | 0.00 | 0.00 | 0.00 | 19 | 1020.9 |
| 20260501220506 | 22 | 234 | 9.7 | 27.4 | 0.00 | 0.00 | 0.00 | 20 | 1021.0 |
| 20260501220007 | 22 | 252 | 19.3 | 27.4 | 0.00 | 0.00 | 0.00 | 19 | 1021.1 |
| 20260501215505 | 21 | 189 | 8.0 | 19.3 | 0.00 | 0.00 | 0.00 | 21 | 1021.1 |
| 20260501215006 | 21 | 248 | 8.0 | 32.2 | 0.00 | 0.00 | 0.00 | 19 | 1021.3 |
| 20260501214506 | 21 | 230 | 19.3 | 32.2 | 0.00 | 0.00 | 0.00 | 18 | 1021.4 |
| 20260501214006 | 21 | 204 | 6.4 | 19.3 | 0.00 | 0.00 | 0.00 | 19 | 1021.5 |
| 20260501213506 | 21 | 227 | 11.3 | 32.2 | 0.00 | 0.00 | 0.00 | 19 | 1021.6 |
| 20260501213006 | 21 | 248 | 9.7 | 32.2 | 0.00 | 0.00 | 0.00 | 19 | 1021.7 |
| 20260501212506 | 22 | 234 | 17.7 | 32.2 | 0.00 | 0.00 | 0.00 | 18 | 1021.8 |
| 20260501212006 | 21 | 215 | 9.7 | 27.4 | 0.00 | 0.00 | 0.00 | 21 | 1021.8 |
| 20260501211506 | 21 | 231 | 9.7 | 22.5 | 0.00 | 0.00 | 0.00 | 19 | 1021.9 |
| 20260501211006 | 21 | 244 | 12.9 | 22.5 | 0.00 | 0.00 | 0.00 | 19 | 1022.0 |
| 20260501210506 | 21 | 231 | 14.5 | 22.5 | 0.00 | 0.00 | 0.00 | 21 | 1021.9 |
| 20260501210006 | 21 | 209 | 9.7 | 27.4 | 0.00 | 0.00 | 0.00 | 21 | 1022.1 |
| 20260501205506 | 21 | 240 | 9.7 | 27.4 | 0.00 | 0.00 | 0.00 | 20 | 1022.1 |
| 20260501205006 | 21 | 212 | 9.7 | 27.4 | 0.00 | 0.00 | 0.00 | 22 | 1022.1 |
| 20260501204506 | 20 | 215 | 3.2 | 19.3 | 0.00 | 0.00 | 0.00 | 23 | 1022.1 |
| 20260501204006 | 20 | 212 | 9.7 | 27.4 | 0.00 | 0.00 | 0.00 | 20 | 1022.3 |
| 20260501203506 | 21 | 255 | 14.5 | 27.4 | 0.00 | 0.00 | 0.00 | 21 | 1022.3 |
| 20260501203006 | 21 | 213 | 6.4 | 20.9 | 0.00 | 0.00 | 0.00 | 24 | 1022.4 |
| 20260501202506 | 20 | 211 | 9.7 | 20.9 | 0.00 | 0.00 | 0.00 | 22 | 1022.4 |
| 20260501202006 | 20 | 228 | 12.9 | 20.9 | 0.00 | 0.00 | 0.00 | 22 | 1022.5 |
| 20260501201007 | 20 | 227 | 14.5 | 22.5 | 0.00 | 0.00 | 0.00 | 22 | 1022.5 |
| 20260501200505 | 20 | 278 | 8.0 | 25.7 | 0.00 | 0.00 | 0.00 | 24 | 1022.6 |
| 20260501200006 | 20 | 236 | 16.1 | 25.7 | 0.00 | 0.00 | 0.00 | 22 | 1022.7 |
| 20260501195506 | 20 | 174 | 9.7 | 24.1 | 0.00 | 0.00 | 0.00 | 22 | 1022.6 |
| 20260501195006 | 20 | 224 | 14.5 | 24.1 | 0.00 | 0.00 | 0.00 | 22 | 1022.7 |